When you browse on this site, cookies collect data to enhance your experience and personalize the content and advertising you see.
Visit our Privacy Policy to learn more. By continuing to use the site, you agree to this use of cookies and data.
  • en France
  • Liste des pays
  • À 7 jours
  • Température de l'eau
  • Carte satellitaire
  • Carte météo
  • Widgets météo
  • user-avatar
    Se connecter

    Météo par heure à Achenheim

    Ce jour, 21 Mars, Jeudi

    Heure Température Précipitation Vent Pression Humidité
    00:00 +5°C° 0 mm 1 m/s 759 mmHg 65%
    01:00 +5°C° 0 mm 1 m/s 759 mmHg 68%
    02:00 +5°C° 0 mm 1 m/s 759 mmHg 69%
    03:00 +4°C° 0 mm 1 m/s 759 mmHg 70%
    04:00 +4°C° 0 mm 1 m/s 759 mmHg 71%
    05:00 +4°C° 0 mm 1 m/s 759 mmHg 71%
    06:00 +4°C° 0 mm 1 m/s 759 mmHg 72%
    07:00 +3°C° 0 mm 1 m/s 759 mmHg 72%
    08:00 +5°C° 0 mm 1 m/s 759 mmHg 64%
    09:00 +6°C° 0 mm 2 m/s 759 mmHg 56%
    10:00 +9°C° 0 mm 2 m/s 759 mmHg 48%
    11:00 +10°C° 0 mm 3 m/s 758 mmHg 46%
    12:00 +12°C° 0 mm 3 m/s 758 mmHg 44%
    13:00 +13°C° 0 mm 3 m/s 758 mmHg 41%
    14:00 +13°C° 0 mm 4 m/s 758 mmHg 42%
    15:00 +14°C° 0 mm 4 m/s 757 mmHg 43%
    16:00 +14°C° 0 mm 4 m/s 757 mmHg 44%
    17:00 +13°C° 0 mm 3 m/s 757 mmHg 50%
    18:00 +11°C° 0 mm 3 m/s 757 mmHg 56%
    19:00 +9°C° 0 mm 2 m/s 757 mmHg 62%
    20:00 +8°C° 0 mm 2 m/s 757 mmHg 66%
    21:00 +7°C° 0 mm 2 m/s 757 mmHg 69%
    22:00 +8°C° 0 mm 1 m/s 758 mmHg 72%
    23:00 +7°C° 0 mm 1 m/s 758 mmHg 74%

    Demain, 22 Mars, Vendredi

    Heure Température Précipitation Vent Pression Humidité
    00:00 +7°C° 0 mm 1 m/s 757 mmHg 75%
    01:00 +6°C° 0 mm 1 m/s 757 mmHg 76%
    02:00 +6°C° 0 mm 1 m/s 757 mmHg 77%
    03:00 +5°C° 0 mm 1 m/s 757 mmHg 78%
    04:00 +5°C° 0 mm 1 m/s 757 mmHg 78%
    05:00 +4°C° 0 mm 0 m/s 757 mmHg 78%
    06:00 +4°C° 0 mm 0 m/s 757 mmHg 77%
    07:00 +4°C° 0 mm 0 m/s 757 mmHg 76%
    08:00 +6°C° 0 mm 0 m/s 757 mmHg 68%
    09:00 +9°C° 0 mm 0 m/s 757 mmHg 60%
    10:00 +11°C° 0 mm 0 m/s 757 mmHg 52%
    11:00 +13°C° 0 mm 0 m/s 757 mmHg 48%
    12:00 +14°C° 0 mm 0 m/s 756 mmHg 44%
    13:00 +16°C° 0 mm 0 m/s 756 mmHg 41%
    14:00 +18°C° 0 mm 1 m/s 756 mmHg 41%
    15:00 +18°C° 0 mm 1 m/s 755 mmHg 41%
    16:00 +18°C° 0 mm 1 m/s 755 mmHg 41%
    17:00 +16°C° 0 mm 1 m/s 755 mmHg 47%
    18:00 +13°C° 0 mm 0 m/s 755 mmHg 53%
    19:00 +11°C° 0 mm 0 m/s 755 mmHg 59%
    20:00 +10°C° 0 mm 0 m/s 755 mmHg 61%
    21:00 +10°C° 0 mm 0 m/s 755 mmHg 64%
    22:00 +9°C° 0 mm 0 m/s 756 mmHg 66%
    23:00 +9°C° 0 mm 0 m/s 756 mmHg 68%

    Après-demain, 23 Mars, Samedi

    Heure Température Précipitation Vent Pression Humidité
    00:00 +9°C° 0 mm 1 m/s 756 mmHg 71%
    01:00 +9°C° 0 mm 1 m/s 755 mmHg 73%
    02:00 +8°C° 0 mm 1 m/s 755 mmHg 75%
    03:00 +8°C° 0 mm 1 m/s 755 mmHg 78%
    04:00 +8°C° 0 mm 1 m/s 755 mmHg 80%
    05:00 +7°C° 0 mm 1 m/s 755 mmHg 81%
    06:00 +7°C° 0 mm 1 m/s 756 mmHg 82%
    07:00 +7°C° 0 mm 1 m/s 756 mmHg 84%
    08:00 +9°C° 0 mm 1 m/s 756 mmHg 77%
    09:00 +10°C° 0 mm 0 m/s 756 mmHg 70%
    10:00 +12°C° 0 mm 0 m/s 756 mmHg 64%
    11:00 +15°C° 0 mm 1 m/s 756 mmHg 60%
    12:00 +16°C° 0 mm 1 m/s 755 mmHg 56%
    13:00 +18°C° 0 mm 1 m/s 755 mmHg 52%
    14:00 +18°C° 0 mm 1 m/s 755 mmHg 51%
    15:00 +17°C° 0 mm 2 m/s 754 mmHg 50%
    16:00 +18°C° 0 mm 2 m/s 754 mmHg 50%
    17:00 +16°C° 0 mm 2 m/s 754 mmHg 55%
    18:00 +14°C° 0 mm 2 m/s 754 mmHg 61%
    19:00 +13°C° 0 mm 1 m/s 754 mmHg 66%
    20:00 +12°C° 0 mm 1 m/s 755 mmHg 69%
    21:00 +11°C° 0 mm 1 m/s 755 mmHg 71%
    22:00 +11°C° 0 mm 1 m/s 755 mmHg 74%
    23:00 +10°C° 0 mm 1 m/s 755 mmHg 76%

    24 Mars, Dimanche

    Heure Température Précipitation Vent Pression Humidité
    00:00 +10°C° 0 mm 1 m/s 755 mmHg 79%
    01:00 +9°C° 0 mm 1 m/s 754 mmHg 82%
    02:00 +9°C° 0 mm 1 m/s 754 mmHg 85%
    03:00 +8°C° 0 mm 1 m/s 754 mmHg 87%
    04:00 +8°C° 0 mm 1 m/s 754 mmHg 89%
    05:00 +8°C° 0 mm 1 m/s 754 mmHg 90%
    06:00 +8°C° 0 mm 1 m/s 754 mmHg 91%
    07:00 +8°C° 0 mm 1 m/s 754 mmHg 92%
    08:00 +9°C° 0 mm 1 m/s 754 mmHg 87%
    09:00 +10°C° 0 mm 2 m/s 755 mmHg 81%
    10:00 +13°C° 0 mm 2 m/s 755 mmHg 76%
    11:00 +14°C° 0 mm 2 m/s 754 mmHg 73%
    12:00 +14°C° 0 mm 2 m/s 754 mmHg 70%
    13:00 +15°C° 0 mm 2 m/s 754 mmHg 67%
    14:00 +14°C° 0 mm 3 m/s 754 mmHg 67%
    15:00 +14°C° 0 mm 3 m/s 754 mmHg 67%
    16:00 +14°C° 0 mm 3 m/s 754 mmHg 67%
    17:00 +13°C° 0.1 mm 3 m/s 754 mmHg 72%
    18:00 +12°C° 0.1 mm 3 m/s 754 mmHg 77%
    19:00 +11°C° 0.1 mm 3 m/s 755 mmHg 82%
    20:00 +10°C° 0 mm 3 m/s 755 mmHg 82%
    21:00 +10°C° 0 mm 2 m/s 756 mmHg 83%
    22:00 +9°C° 0 mm 2 m/s 756 mmHg 83%
    23:00 +8°C° 0 mm 2 m/s 756 mmHg 85%

    25 Mars, Lundi

    Heure Température Précipitation Vent Pression Humidité
    00:00 +8°C° 0 mm 2 m/s 756 mmHg 87%
    01:00 +7°C° 0 mm 2 m/s 756 mmHg 88%
    02:00 +5°C° 0 mm 3 m/s 756 mmHg 87%
    03:00 +5°C° 0 mm 3 m/s 756 mmHg 85%
    04:00 +4°C° 0 mm 3 m/s 756 mmHg 84%
    05:00 +4°C° 0 mm 3 m/s 757 mmHg 82%
    06:00 +3°C° 0 mm 3 m/s 757 mmHg 81%
    07:00 +4°C° 0 mm 2 m/s 757 mmHg 80%
    08:00 +4°C° 0 mm 3 m/s 758 mmHg 73%
    09:00 +7°C° 0 mm 3 m/s 758 mmHg 67%
    10:00 +7°C° 0 mm 4 m/s 758 mmHg 60%
    11:00 +8°C° 0 mm 4 m/s 758 mmHg 55%
    12:00 +10°C° 0 mm 4 m/s 758 mmHg 51%
    13:00 +11°C° 0 mm 4 m/s 757 mmHg 46%
    14:00 +11°C° 0 mm 4 m/s 757 mmHg 45%
    15:00 +11°C° 0 mm 4 m/s 757 mmHg 44%
    16:00 +12°C° 0 mm 4 m/s 757 mmHg 44%
    17:00 +10°C° 0 mm 3 m/s 757 mmHg 50%
    18:00 +9°C° 0 mm 2 m/s 757 mmHg 56%
    19:00 +8°C° 0 mm 2 m/s 757 mmHg 63%
    20:00 +7°C° 0 mm 2 m/s 758 mmHg 66%
    21:00 +7°C° 0 mm 1 m/s 758 mmHg 69%
    22:00 +7°C° 0 mm 1 m/s 758 mmHg 72%
    23:00 +6°C° 0 mm 1 m/s 758 mmHg 75%

    26 Mars, Mardi

    Heure Température Précipitation Vent Pression Humidité
    00:00 +6°C° 0 mm 1 m/s 759 mmHg 79%
    01:00 +5°C° 0 mm 1 m/s 759 mmHg 82%
    02:00 +5°C° 0 mm 1 m/s 759 mmHg 84%
    03:00 +5°C° 0 mm 1 m/s 759 mmHg 86%
    04:00 +4°C° 0 mm 1 m/s 758 mmHg 88%
    05:00 +4°C° 0 mm 1 m/s 758 mmHg 88%
    06:00 +4°C° 0 mm 1 m/s 759 mmHg 88%
    07:00 +4°C° 0 mm 1 m/s 759 mmHg 88%
    08:00 +6°C° 0 mm 1 m/s 759 mmHg 80%
    09:00 +7°C° 0 mm 2 m/s 759 mmHg 72%
    10:00 +9°C° 0 mm 2 m/s 759 mmHg 64%
    11:00 +9°C° 0 mm 2 m/s 759 mmHg 60%
    12:00 +10°C° 0 mm 3 m/s 758 mmHg 57%
    13:00 +11°C° 0 mm 3 m/s 758 mmHg 54%
    14:00 +11°C° 0 mm 3 m/s 758 mmHg 56%
    15:00 +11°C° 0 mm 4 m/s 758 mmHg 57%
    16:00 +11°C° 0 mm 4 m/s 758 mmHg 59%
    17:00 +10°C° 0 mm 3 m/s 758 mmHg 64%
    18:00 +8°C° 0 mm 3 m/s 758 mmHg 69%
    19:00 +7°C° 0 mm 2 m/s 758 mmHg 75%
    20:00 +6°C° 0 mm 2 m/s 759 mmHg 78%
    21:00 +7°C° 0 mm 1 m/s 759 mmHg 81%
    22:00 +6°C° 0 mm 1 m/s 759 mmHg 83%
    23:00 +6°C° 0 mm 1 m/s 759 mmHg 85%
    Voir plus